Weather History for Price, UT

Change the Weather History Date:

Saturday, November 17, 2012

  Actual Average Record
Temperature  
Mean Temperature 39 °F -  
Max Temperature 48 °F 43 °F 61 °F (1974)
Min Temperature 30 °F 23 °F 9 °F (2000)
Degree Days  
Heating Degree Days 26    
Moisture  
Dew Point 26 °F    
Average Humidity 57    
Maximum Humidity 75    
Minimum Humidity 41    
Precipitation  
Precipitation 0.00 in - - ()
Sea Level Pressure  
Sea Level Pressure 30.17 in    
Wind  
Wind Speed 1 mph (East)    
Max Wind Speed 7 mph    
Max Gust Speed -    
Visibility 10 miles    
Events      
Averages and records for this station are not official NWS values.
T = Trace of Precipitation, MM = Missing Value Source: NWS Daily Summary

Daily Weather History Graph

Daily Weather History Graph

Search for Another Location

Airport:

Trip Planner

Search our weather history database for the weather conditions in past years. The results will help you decide how hot, cold, wet, or windy it might be!

Date:

Astronomy

Nov. 17, 2012 Rise Set
Actual Time 7:10 AM MST 5:05 PM MST
Civil Twilight 6:41 AM MST 5:34 PM MST
Nautical Twilight 6:08 AM MST 6:07 PM MST
Astronomical Twilight 5:36 AM MST 6:39 PM MST
Moon 10:57 AM MST 9:19 PM MST
Length of Visible Light 10h 53m
Length of Day
9h 55m
Waxing Crescent, 21% of the Moon is Illuminated
Nov 17
Waxing Crescent
Nov 20
First Quarter
Nov 28
Full
Dec 6
Last Quarter
Dec 13
New

Hourly Weather History & Observations

Time (MST) Temp. Windchill Dew Point Humidity Pressure Visibility Wind Dir Wind Speed Gust Speed Precip Events Conditions
12:53 AM 36.0 °F - 24.1 °F 62% 30.19 in 10.0 mi Calm Calm - N/A   Overcast
1:53 AM 35.1 °F - 24.1 °F 64% 30.19 in 10.0 mi Calm Calm - N/A   Mostly Cloudy
2:53 AM 36.0 °F - 25.0 °F 64% 30.19 in 10.0 mi Calm Calm - N/A   Overcast
3:53 AM 35.1 °F - 25.0 °F 67% 30.18 in 10.0 mi Calm Calm - N/A   Overcast
4:53 AM 35.1 °F - 24.1 °F 64% 30.19 in 10.0 mi Calm Calm - N/A   Overcast
5:53 AM 33.1 °F - 23.0 °F 66% 30.21 in 10.0 mi Calm Calm - N/A   Mostly Cloudy
6:53 AM 30.9 °F - 23.0 °F 72% 30.24 in 10.0 mi Calm Calm - N/A   Clear
7:53 AM 30.0 °F 25.2 °F 23.0 °F 75% 30.26 in 10.0 mi NNW 4.6 mph - N/A   Clear
8:53 AM 39.0 °F - 28.0 °F 65% 30.25 in 10.0 mi Calm Calm - N/A   Overcast
9:53 AM 42.1 °F - 28.9 °F 60% 30.23 in 10.0 mi Calm Calm - N/A   Overcast
10:53 AM 45.0 °F - 27.0 °F 49% 30.23 in 10.0 mi Calm Calm - N/A   Overcast
11:53 AM 46.0 °F 43.9 °F 26.1 °F 46% 30.20 in 10.0 mi ESE 4.6 mph - N/A   Overcast
12:53 PM 46.9 °F - 25.0 °F 42% 30.16 in 10.0 mi SSE 6.9 mph - N/A   Overcast
1:53 PM 48.9 °F - 26.1 °F 41% 30.14 in 10.0 mi SE 5.8 mph - N/A   Overcast
2:53 PM 48.9 °F - 27.0 °F 43% 30.12 in 10.0 mi SSE 6.9 mph - N/A   Overcast
3:53 PM 48.0 °F - 26.1 °F 42% 30.11 in 10.0 mi Calm Calm - N/A   Overcast
4:53 PM 46.0 °F - 25.0 °F 44% 30.11 in 10.0 mi Calm Calm - N/A   Mostly Cloudy
5:53 PM 44.1 °F 42.5 °F 25.0 °F 47% 30.12 in 10.0 mi ENE 3.5 mph - N/A   Overcast
6:53 PM 43.0 °F 41.3 °F 25.0 °F 49% 30.13 in 10.0 mi ENE 3.5 mph - N/A   Mostly Cloudy
7:53 PM 42.1 °F 39.2 °F 27.0 °F 55% 30.15 in 10.0 mi NE 4.6 mph - N/A   Overcast
8:53 PM 37.0 °F 31.6 °F 27.0 °F 67% 30.13 in 10.0 mi North 6.9 mph - N/A   Partly Cloudy
9:53 PM 39.0 °F 35.7 °F 27.0 °F 62% 30.09 in 10.0 mi NNE 4.6 mph - N/A   Overcast
10:53 PM 41.0 °F 39.0 °F 28.0 °F 60% 30.07 in 10.0 mi East 3.5 mph - N/A   Overcast
11:53 PM 39.9 °F - 27.0 °F 60% 30.08 in 10.0 mi Calm Calm - N/A   Overcast